[[{"header":{"parameterUnit":"m.s-1","parameterCategory":1,"la1":30.2991,"la2":30.254,"lo1":-89.0895,"lo2":-89.0444,"dy":0.0017,"dx":0.0017,"nx":28,"ny":28,"refTime":"2025-01-26T03:00:00:Z","depth":0,"parameterNumber":2,"parameterNumberName":"U-component_of_WINDS"},"data":[0,0,0,0,0,0,0,0,0,0,0,0,0,0,0,0,0,0,0,0,0,0,0,0,0,0,0,0,0,0,0,0,0,0,0,0,0,0,0,0,0,0,0,0,0,0,0,0,0,0,0,0,0,0,0,0,0,0,0.4421,0.4421,0,0.4483,0.4484,0.4485,0.4476,0.4475,0.4474,0.4473,0.4539,0.4542,0.4544,0,0,0,0,0,0,0,0,0,0,0,0,0,0.4295,0.4298,0.4421,0.4421,0.4422,0.4483,0.4484,0.4485,0.4477,0.4475,0.4474,0.4473,0.4538,0.4541,0.4545,0,0,0,0,0,0,0,0,0,0,0,0,0,0.4353,0.4298,0.4421,0.4425,0.4426,0.4483,0.4484,0.4485,0.4477,0.4475,0.4474,0.4472,0.4537,0.4541,0.4545,0.4601,0,0,0.4557,0.4559,0,0,0,0,0,0,0,0,0.435,0.4358,0.4424,0.4425,0.4426,0.4471,0.4464,0.4524,0.4477,0.4458,0.4473,0.4472,0.4518,0.4523,0.4538,0.4604,0.4607,0.4558,0.456,0.4562,0.4563,0,0,0,0,0,0,0,0.4346,0.4355,0.4446,0.4425,0.4426,0.4425,0.4432,0.4475,0.4496,0.4459,0.4459,0.4466,0.4518,0.4534,0.454,0.4608,0.4558,0.4561,0.4564,0.4565,0.4725,0.4727,0,0,0,0,0,0,0.434,0.4352,0.4444,0.4447,0.4384,0.4429,0.4436,0.4458,0.4495,0.4499,0.4468,0.4466,0.4528,0.4535,0.4542,0.4612,0.4562,0.4566,0.4568,0.4724,0.4726,0.4728,0,0,0,0,0,0,0.4338,0.4349,0.4441,0.44,0.4411,0.4432,0.4457,0.446,0.4476,0.4501,0.4505,0.4481,0.4527,0.4536,0.4587,0.4614,0.4568,0.4571,0.4721,0.4724,0.4727,0.475,0,0,0,0,0,0,0.4334,0.4348,0.4369,0.44,0.4413,0.4484,0.4459,0.4462,0.4483,0.4482,0.4515,0.4519,0.4527,0.4581,0.4591,0.4618,0.4574,0.4719,0.4723,0.4726,0.4747,0.4753,0.4759,0,0,0,0,0,0.433,0.4373,0.437,0.4381,0.444,0.4486,0.4493,0.4502,0.4486,0.4507,0.4524,0.4518,0.4609,0.4586,0.4597,0.4626,0.4717,0.4722,0.4726,0.4745,0.4752,0.4759,0,0,0,0,0,0,0.4344,0.4377,0.4374,0.4428,0.4454,0.4484,0.4512,0.4509,0.454,0.4537,0.4547,0.4554,0.4606,0.4621,0.4595,0.4684,0.4661,0.4668,0.4672,0.4679,0.4685,0.468,0.4578,0,0,0,0,0,0.4354,0.4387,0.4414,0.446,0.4473,0.449,0.451,0.4515,0.4542,0.4553,0.4573,0.46,0.4635,0.4658,0.4691,0.4749,0.4757,0.4775,0.4781,0.4785,0.4791,0.4824,0.4833,0.4741,0.4741,0.4741,0,0,0.4374,0.4396,0.4416,0.4463,0.4484,0.452,0.4499,0.4538,0.4564,0.4559,0.4608,0.4624,0.4655,0.471,0.4735,0.4724,0.4818,0.4791,0.4794,0.4797,0.483,0.4838,0.4846,0.4744,0.4743,0.4743,0,0,0.4428,0.4448,0.4488,0.451,0.4541,0.4553,0.4562,0.4593,0.4603,0.4653,0.465,0.4682,0.4742,0.4765,0.4784,0.4849,0.4845,0.486,0.489,0.4922,0.493,0.4936,0.496,0.4969,0.4865,0.4865,0.4865,0,0.4449,0.4502,0.451,0.4549,0.457,0.4567,0.4609,0.4629,0.467,0.4685,0.4672,0.4748,0.4769,0.483,0.4846,0.4861,0.4874,0.4856,0.4928,0.4934,0.4941,0.4964,0.4973,0.4867,0.4867,0.4866,0.4866,0,0.4527,0.4564,0.4593,0.4633,0.4657,0.4697,0.4712,0.4736,0.4739,0.4752,0.4803,0.4828,0.4867,0.4882,0.4884,0.4943,0.4936,0.4926,0.4903,0.4951,0.4973,0.4982,0.4869,0.4869,0.4868,0.4868,0,0,0.4591,0.4636,0.4646,0.4665,0.47,0.4729,0.477,0.4808,0.4829,0.4858,0.4893,0.4945,0.4936,0.4958,0.4963,0.4991,0.5043,0.4978,0.4979,0.499,0.5111,0.5119,0.5129,0.504,0.5042,0.5043,0.5109,0,0.465,0.4721,0.473,0.4794,0.4829,0.4827,0.4863,0.4889,0.4903,0.4935,0.495,0.4987,0.4972,0.4985,0.5013,0.5031,0.5067,0.5026,0.5074,0.5076,0.5067,0.5141,0.5149,0.5209,0.5117,0.5119,0.512,0,0.4728,0.4759,0.4826,0.4858,0.4873,0.4905,0.4941,0.4972,0.5002,0.501,0.5035,0.5038,0.5081,0.5057,0.5117,0.5089,0.5109,0.5121,0.5123,0.5129,0.5101,0.5149,0.5229,0.5238,0.5133,0.5132,0.5131,0,0.4769,0.4828,0.4876,0.4892,0.493,0.4953,0.497,0.4998,0.5021,0.5053,0.5069,0.5106,0.5126,0.5155,0.5167,0.5148,0.5228,0.5204,0.5237,0.5236,0.5253,0.5252,0.5339,0.5266,0.5265,0.5265,0.5265,0,0.4834,0.4875,0.4896,0.4925,0.4973,0.4983,0.5029,0.5045,0.5071,0.5105,0.5105,0.5137,0.5151,0.5186,0.5196,0.5245,0.5254,0.5263,0.5265,0.5263,0.5262,0.5277,0.5273,0.5268,0.5267,0.5267,0.5266,0,0.4888,0.4903,0.4956,0.4988,0.4997,0.503,0.5058,0.5088,0.5101,0.5144,0.5155,0.5177,0.5217,0.5233,0.5282,0.5289,0.5346,0.5345,0.5336,0.5337,0.5369,0.5366,0.5468,0.5483,0.5399,0.54,0.5401,0,0.4929,0.4961,0.4996,0.5019,0.5037,0.5073,0.5096,0.5108,0.5133,0.5171,0.5196,0.5236,0.5269,0.5334,0.5355,0.5394,0.5394,0.5427,0.5399,0.5397,0.5395,0.5393,0.5397,0.5432,0.5433,0.5433,0.5434,0,0.4999,0.5006,0.5039,0.5076,0.5104,0.5134,0.5163,0.5182,0.5198,0.5226,0.5268,0.5293,0.5344,0.5385,0.5424,0.5443,0.5442,0.5443,0.5452,0.5451,0.5445,0.545,0.5351,0.544,0.544,0.5439,0.5439,0.5439,0.5049,0.5077,0.5108,0.5146,0.5169,0.5196,0.5226,0.5243,0.5278,0.532,0.5325,0.537,0.5401,0.5454,0.5475,0.5511,0.5502,0.5516,0.5519,0.5523,0.5526,0.5439,0.5518,0.5518,0.5518,0.5518,0.5517,0,0.512,0.514,0.5174,0.5215,0.5246,0.5242,0.5274,0.53,0.5339,0.5368,0.5401,0.5449,0.5489,0.5513,0.5554,0.5578,0.5579,0.5588,0.5587,0.5592,0.5531,0.5519,0.5587,0.5587,0.5587,0.5587,0.5587,0.5587,0.5161,0.521,0.522,0.5281,0.5301,0.5345,0.5364,0.5389,0.5412,0.5467,0.55,0.5515,0.5543,0.5585,0.5622,0.5628,0.5644,0.5654,0.566,0.5603,0.5596,0.5589,0.5578,0.5657,0.5657,0.5718,0.5718,0.5719]},{"header":{"parameterUnit":"m.s-1","parameterCategory":1,"la1":30.2991,"la2":30.254,"lo1":-89.0895,"lo2":-89.0444,"dy":0.0017,"dx":0.0017,"nx":28,"ny":28,"refTime":"2025-01-26T03:00:00:Z","depth":0,"parameterNumber":3,"parameterNumberName":"V-component_of_WINDS"},"data":[0,0,0,0,0,0,0,0,0,0,0,0,0,0,0,0,0,0,0,0,0,0,0,0,0,0,0,0,0,0,0,0,0,0,0,0,0,0,0,0,0,0,0,0,0,0,0,0,0,0,0,0,0,0,0,0,0,0,1.7474,1.7474,0,1.7431,1.7431,1.743,1.7389,1.7389,1.7388,1.7388,1.7343,1.7342,1.7341,0,0,0,0,0,0,0,0,0,0,0,0,0,1.7518,1.7518,1.7474,1.7473,1.7473,1.7431,1.7431,1.743,1.739,1.7389,1.7388,1.7388,1.7343,1.7342,1.7341,0,0,0,0,0,0,0,0,0,0,0,0,0,1.749,1.7518,1.7474,1.7448,1.7445,1.7431,1.7431,1.743,1.739,1.7389,1.7388,1.7387,1.7343,1.7342,1.7341,1.735,0,0,1.7338,1.7337,0,0,0,0,0,0,0,0,1.7491,1.7488,1.7452,1.745,1.7446,1.7415,1.743,1.7403,1.739,1.7411,1.7388,1.7387,1.7367,1.7364,1.7358,1.7347,1.7345,1.7337,1.7337,1.7336,1.7336,0,0,0,0,0,0,0,1.7494,1.749,1.7457,1.7452,1.7448,1.7437,1.7432,1.7424,1.7394,1.7409,1.7406,1.7401,1.7365,1.7359,1.7356,1.7345,1.7338,1.7337,1.7336,1.7335,1.7338,1.7338,0,0,0,0,0,0,1.75,1.7492,1.7458,1.7456,1.7468,1.7437,1.7432,1.7426,1.7394,1.7388,1.7402,1.74,1.7361,1.7358,1.7355,1.7361,1.7336,1.7335,1.7335,1.7337,1.7338,1.7339,0,0,0,0,0,0,1.7501,1.7497,1.746,1.7473,1.7467,1.7437,1.7431,1.7425,1.7419,1.7389,1.7383,1.7401,1.736,1.7356,1.7351,1.7359,1.7335,1.7334,1.7336,1.7337,1.7338,1.7376,0,0,0,0,0,0,1.7502,1.7498,1.7501,1.7473,1.7467,1.7458,1.7432,1.7425,1.7417,1.7413,1.7386,1.7381,1.7359,1.7353,1.735,1.7357,1.7333,1.7335,1.7337,1.7338,1.7374,1.7378,1.7382,0,0,0,0,0,1.7504,1.7514,1.7502,1.7498,1.7471,1.7459,1.7455,1.743,1.7418,1.7421,1.7401,1.7382,1.7359,1.7352,1.7349,1.7356,1.7335,1.7336,1.7338,1.7372,1.7377,1.7382,0,0,0,0,0,0,1.7543,1.7509,1.7496,1.7497,1.7481,1.7452,1.7455,1.7437,1.7424,1.7421,1.7391,1.7385,1.7383,1.7369,1.7362,1.7362,1.7344,1.7345,1.7371,1.7376,1.738,1.7383,1.7332,0,0,0,0,0,1.7552,1.7545,1.7516,1.752,1.7512,1.7485,1.7479,1.7461,1.7443,1.7436,1.7416,1.7399,1.7388,1.7381,1.7369,1.7372,1.7364,1.7375,1.7379,1.7382,1.7383,1.7382,1.7386,1.7344,1.7344,1.7344,0,0,1.757,1.755,1.7548,1.7527,1.7513,1.7506,1.748,1.7474,1.7468,1.7435,1.7429,1.7414,1.7392,1.7391,1.7389,1.7379,1.7393,1.7384,1.7387,1.7386,1.7384,1.7388,1.7391,1.7345,1.7345,1.7345,0,0,1.7598,1.7584,1.7585,1.7571,1.7549,1.7531,1.7531,1.7505,1.7493,1.7487,1.7462,1.7454,1.7436,1.7421,1.7412,1.7434,1.7415,1.7431,1.7452,1.7451,1.7454,1.7457,1.7464,1.7467,1.7432,1.7432,1.7433,0,1.7623,1.7612,1.7587,1.7582,1.7573,1.7544,1.7544,1.7531,1.7507,1.7501,1.7491,1.7466,1.745,1.7444,1.7449,1.7443,1.7441,1.7434,1.7456,1.7459,1.7461,1.7467,1.747,1.7434,1.7434,1.7434,1.7434,0,1.7643,1.7636,1.7639,1.7617,1.7608,1.7606,1.7579,1.7573,1.7557,1.7539,1.7532,1.7511,1.7494,1.7492,1.7475,1.7483,1.7477,1.7462,1.7443,1.7467,1.7472,1.7475,1.7437,1.7437,1.7436,1.7436,0,0,1.7695,1.7658,1.766,1.7649,1.7623,1.7616,1.7613,1.7596,1.7591,1.7575,1.757,1.7555,1.7541,1.753,1.7511,1.7511,1.7528,1.7495,1.7494,1.7501,1.7534,1.7545,1.7548,1.7516,1.7516,1.7517,1.7535,0,1.7719,1.771,1.7687,1.7685,1.7678,1.7649,1.7646,1.7629,1.7612,1.7603,1.7584,1.7573,1.7556,1.7549,1.7547,1.7527,1.7534,1.7525,1.751,1.751,1.7515,1.7551,1.7563,1.7581,1.7537,1.7537,1.7538,0,1.7745,1.7731,1.7729,1.7702,1.7698,1.7696,1.7678,1.767,1.765,1.7638,1.7625,1.7605,1.7598,1.7581,1.757,1.7564,1.7557,1.7546,1.7546,1.7543,1.7525,1.7548,1.7586,1.7589,1.7541,1.7541,1.754,0,1.7781,1.7762,1.7758,1.775,1.7719,1.7718,1.7705,1.7684,1.7675,1.766,1.7654,1.7638,1.7629,1.7616,1.7592,1.7582,1.7583,1.7565,1.7572,1.7572,1.7573,1.7573,1.761,1.757,1.757,1.7569,1.7569,0,1.781,1.7809,1.7774,1.7771,1.7769,1.7743,1.7741,1.7725,1.7707,1.77,1.7675,1.7668,1.7637,1.7627,1.7607,1.7601,1.7597,1.7586,1.7581,1.7588,1.7589,1.7582,1.7579,1.757,1.757,1.757,1.757,0,1.785,1.7827,1.782,1.7792,1.7784,1.7784,1.7759,1.7755,1.7737,1.7728,1.7725,1.7696,1.7683,1.7657,1.7637,1.7623,1.7621,1.7612,1.7627,1.7624,1.7632,1.7631,1.7665,1.7667,1.7627,1.7627,1.7628,0,1.7869,1.7868,1.7839,1.7833,1.7821,1.7812,1.7803,1.7776,1.7767,1.7744,1.7742,1.7727,1.7714,1.7693,1.767,1.7654,1.7644,1.7657,1.7641,1.7648,1.7642,1.7642,1.7642,1.766,1.766,1.7661,1.7661,0,1.7905,1.7893,1.7882,1.7866,1.7856,1.7842,1.7827,1.7823,1.7793,1.7784,1.7771,1.776,1.7739,1.7724,1.7704,1.7689,1.767,1.7667,1.7667,1.7674,1.7682,1.7677,1.7636,1.7666,1.7665,1.7665,1.7665,1.7664,1.7934,1.7931,1.7911,1.7898,1.7884,1.7871,1.7865,1.7846,1.7835,1.7816,1.78,1.7788,1.7766,1.7738,1.7725,1.7713,1.7704,1.7705,1.7705,1.7706,1.7708,1.7685,1.771,1.771,1.7709,1.7709,1.7709,0,1.7968,1.7953,1.7942,1.7922,1.7912,1.7895,1.7877,1.787,1.7859,1.7841,1.7828,1.7812,1.7797,1.7772,1.7755,1.775,1.7741,1.7747,1.7746,1.7743,1.7718,1.7719,1.7755,1.7755,1.7755,1.7755,1.7755,1.7755,1.7984,1.7978,1.7964,1.7951,1.7935,1.7923,1.7914,1.7901,1.7887,1.787,1.7857,1.7842,1.7821,1.7801,1.7786,1.7779,1.7773,1.7782,1.7772,1.7749,1.7745,1.7741,1.7741,1.7781,1.7781,1.7797,1.7798,1.7798]}]]